Home > Weather > Jamestown > Past weeks

Flag for Saint Helena Past Weather in Jamestown, Saint Helena — Yesterday and Last 2 Weeks

Now
60 °F

Cool.


Feels Like: 57 °F
Forecast: 68 / 70 °F
Wind: 16 mph from Southeast

Location: Saint Helena Island

Current Time: Jul 28, 2016 at 8:46:42 AM

Latest Report: Jul 28, 2016 at 8:00 AM


Visibility: N/A

Pressure: 30.14 "Hg

Humidity: 91%

Dew Point: 57 °F

Location of JamestownLocation

Past Weather in Jamestown — Graph

°F

Jamestown Temperature Yesterday

Maximum temperature yesterday: 64 °F (at 2:00 PM)
Minimum temperature yesterday: 58 °F (at 3:00 AM)
Average temperature yesterday: 60 °F

High & Low Weather Summary for the Past Weeks

 TemperatureHumidityPressure
High68 °F (Jul 20, 3:00 PM)100% (Jul 24, 7:00 AM)30.22 "Hg (Jul 24, 7:00 AM)
Low56 °F (Jul 28, 5:00 AM)57% (Jul 16, 12:00 PM)30.06 "Hg (Jul 13, 3:00 PM)
Average62 °F81%30.13 "Hg
* Reported Jul 13 7:00 AM — Jul 28 7:00 AM, Jamestown, Weather by CustomWeather, © 2016

Note: Actual official high and low records may vary slightly from our data, if they occured in-between our weather recording intervals... More about our weather records

Advertising

Jamestown Weather History for the Previous 24 Hours

Scroll right to see more
 ConditionsComfort  
Time TempWeatherWind HumidityBarometerVisibility
7:00 AM
Thu, Jul 28
60 °FCool.16 mph85%30.12 "HgN/A
5:00 AM56 °FCool.8 mph94%30.12 "HgN/A
4:00 AM58 °FCool.21 mph95%30.10 "HgN/A
3:00 AM58 °FCool.18 mph87%30.11 "HgN/A
2:00 AM60 °FCool.15 mph86%30.11 "HgN/A
1:00 AM60 °FCool.14 mph85%30.13 "HgN/A
11:00 PM
Wed, Jul 27
60 °FCool.17 mph80%30.14 "HgN/A
10:00 PM60 °FCool.13 mph85%30.15 "HgN/A
9:00 PM60 °FCool.15 mph82%30.15 "HgN/A
8:00 PM60 °FCool.13 mph89%30.13 "HgN/A
7:00 PM60 °FCool.14 mph86%30.12 "HgN/A
6:00 PM60 °FCool.15 mph86%30.11 "HgN/A
4:00 PM61 °FCool.9 mph84%30.09 "HgN/A
3:00 PM61 °FLow clouds.17 mph89%30.09 "Hg6 mi
2:00 PM64 °FLow clouds.15 mph80%30.11 "Hg25 mi
1:00 PM62 °FOvercast.15 mph77%30.13 "Hg25 mi
11:00 AM60 °FOvercast.7 mph90%30.17 "Hg6 mi
10:00 AM61 °FOvercast.10 mph82%30.16 "Hg16 mi
9:00 AM60 °FOvercast.13 mph79%30.15 "Hg22 mi
8:00 AM60 °FCool.13 mph77%30.14 "HgN/A
Weather by CustomWeather, © 2016

See weather overviewHow to use our weather pages